Theta_e
359 360 361 361 362 362 362 364 362 363 362 362 363 363 363 364 363 363 365 365 365 365 365 366 366 365 363 363 360 362 364 363 363 365 366 365 364 364 363 364 365 363 364 364 363 364 365 365 364 365 366 363 361 360 359 362 365 362 362 361 358 359 357 354 350 350 355 357 354 353 355 357 353 356 357 357 359 360 358 361 361 359 359 358 357
359 360 361 360 360 361 362 363 363 363 361 361 362 363 363 364 365 365 363 365 366 365 366 366 365 365 364 364 365 363 365 368 363 363 364 365 365 362 362 364 366 365 364 364 365 364 366 367 366 364 366 365 362 360 360 358 360 360 361 360 358 360 362 357 354 353 352 357 355 358 356 359 356 362 358 356 357 360 358 361 362 361 360 359 357
358 361 361 361 361 361 362 362 363 363 360 360 360 361 363 364 365 364 362 363 366 365 365 365 366 367 366 365 366 366 367 367 366 364 364 365 366 362 362 364 365 364 363 364 364 365 364 366 365 365 363 364 366 364 362 361 360 360 360 361 361 360 362 363 358 354 353 353 358 356 357 358 358 359 362 361 362 362 361 359 356 358 362 362 360
357 360 360 360 361 361 362 362 361 361 359 359 360 361 361 362 364 364 363 361 363 366 365 365 366 368 366 366 366 367 367 366 366 366 366 367 367 366 365 364 365 365 363 363 363 364 364 365 364 363 363 364 366 364 364 364 363 363 362 363 363 362 363 363 364 360 357 354 357 356 357 356 357 361 361 363 361 361 361 361 361 360 358 358 360
357 358 360 359 359 360 360 360 360 361 360 359 359 360 360 360 363 363 363 361 362 365 366 366 366 367 366 366 366 367 367 368 368 365 365 366 367 365 366 366 366 366 365 365 365 365 365 364 364 365 365 364 365 364 364 366 366 365 364 364 364 364 365 365 364 363 358 356 358 362 363 363 363 364 365 361 361 362 364 363 362 362 362 360 359
357 358 359 358 359 359 360 360 359 360 360 359 359 360 360 359 360 363 363 362 362 362 365 365 365 367 368 367 367 368 369 368 368 367 363 364 365 365 365 366 365 366 366 365 365 366 365 365 365 365 364 364 364 364 366 366 367 366 366 365 365 366 365 363 362 360 358 356 357 356 361 360 362 364 365 363 360 360 362 363 365 364 364 362 360
358 357 359 358 359 359 360 360 360 360 361 360 360 360 360 359 359 361 363 362 361 361 362 366 366 367 368 368 366 368 368 367 368 369 366 365 364 365 362 363 364 365 366 364 364 365 365 365 366 366 365 366 364 363 365 366 366 367 368 368 368 366 362 362 362 359 358 356 356 357 357 360 361 357 362 365 362 360 358 358 357 362 363 362 361
357 358 359 359 360 358 360 362 363 362 362 364 363 361 361 360 361 362 364 363 360 360 361 364 366 366 367 367 367 367 368 367 369 369 368 365 363 365 364 363 361 362 364 365 364 362 362 363 363 364 366 368 368 367 366 364 366 366 367 369 368 365 362 360 361 359 357 356 355 355 356 356 357 358 359 361 358 358 360 359 356 356 358 362 363
357 357 359 359 360 362 363 363 363 364 363 364 364 363 362 363 363 363 365 364 362 361 362 362 364 365 365 366 366 366 365 365 366 367 367 367 365 362 364 365 363 361 363 363 364 365 364 361 361 361 365 370 366 365 365 365 366 365 368 369 367 365 362 361 360 359 357 356 355 356 353 353 354 355 353 353 354 354 360 361 359 360 360 360 363
357 357 358 360 361 363 363 365 365 365 364 365 365 365 364 364 364 364 364 364 365 364 364 363 363 364 364 365 365 364 364 365 359 344 350 366 366 362 363 364 365 363 363 363 362 363 364 363 360 366 364 366 361 352 347 346 347 356 361 364 365 364 362 360 359 358 356 353 353 353 352 352 352 355 353 355 358 360 358 361 357 359 361 359 360
357 357 358 360 362 364 364 364 365 365 365 365 366 366 365 365 365 365 365 365 365 366 365 363 362 362 363 363 363 363 363 362 343 335 336 341 362 367 364 365 367 367 365 366 365 364 363 363 365 366 368 359 361 345 344 341 341 340 340 343 351 363 362 359 359 357 355 354 354 354 352 353 355 357 358 356 359 359 359 360 359 358 356 353 351
357 359 359 362 363 364 363 365 365 365 366 366 367 367 366 366 365 366 365 365 366 365 364 364 364 362 362 363 362 362 363 348 334 332 333 334 343 365 365 365 365 365 366 365 365 365 363 362 362 364 365 367 368 369 353 339 336 336 335 335 336 337 341 356 359 358 358 355 353 354 356 356 357 360 358 358 359 360 361 360 360 358 356 354 354
358 360 360 362 364 365 366 365 365 366 366 366 368 367 367 366 365 364 363 365 366 366 366 364 365 364 362 363 361 362 363 342 331 330 331 331 332 346 361 364 364 364 365 366 366 367 366 364 364 363 364 368 365 366 369 368 339 330 332 334 335 334 332 331 334 354 360 358 356 355 356 357 358 360 362 362 364 361 361 359 360 360 360 357 356
360 360 361 362 365 366 366 365 365 367 367 367 367 367 366 365 365 365 364 365 365 365 364 365 365 366 364 363 364 363 363 341 328 327 328 328 330 337 362 361 363 363 365 366 366 367 367 367 365 365 367 367 368 367 368 368 369 365 357 356 359 353 334 329 329 328 337 354 357 357 360 363 359 362 365 367 363 360 360 357 360 359 359 358 362
360 361 361 363 365 366 366 366 366 366 367 367 367 366 365 365 364 364 362 363 364 364 364 364 365 365 364 363 362 361 361 335 326 324 324 324 327 333 361 361 362 363 364 366 367 367 368 367 368 366 367 369 369 368 369 371 370 367 365 363 365 367 368 364 356 354 352 351 356 359 361 363 363 364 365 366 366 365 364 362 361 361 360 362 361
359 361 361 363 365 365 365 366 366 367 366 366 366 365 365 366 365 364 363 362 364 365 365 364 364 364 364 364 361 361 362 332 323 323 322 323 325 349 359 361 361 362 364 366 366 368 369 368 368 368 369 369 359 343 350 367 366 365 363 363 362 363 363 358 347 350 363 364 363 363 363 362 348 366 367 363 364 365 362 361 361 359 357 354 352
360 362 361 362 363 364 365 364 365 365 366 365 364 364 364 365 365 365 363 361 361 361 363 362 365 363 364 364 362 363 362 342 322 321 320 320 328 356 359 360 361 362 363 365 366 367 368 370 369 367 367 369 354 338 333 343 365 363 362 360 360 362 361 365 346 333 334 334 334 336 336 335 334 330 329 329 344 352 357 353 351 353 351 350 350
359 361 360 362 363 365 365 365 364 364 365 364 364 364 364 365 364 365 362 360 358 360 362 363 364 364 363 363 362 362 362 346 320 319 318 318 333 358 360 359 361 362 363 365 366 367 369 362 367 368 367 369 345 333 330 346 365 363 360 358 359 359 360 361 361 360 330 328 329 330 330 330 329 328 328 327 327 331 349 348 355 356 352 351 348
359 360 361 362 364 365 364 364 364 364 365 364 364 363 363 364 364 365 362 362 360 362 362 362 362 363 362 362 354 359 363 349 319 319 317 316 334 360 360 361 360 361 361 363 366 366 367 363 356 354 358 357 336 331 328 345 364 364 362 361 357 358 361 363 362 363 367 367 366 359 353 340 347 353 355 334 329 333 348 353 357 356 350 348 347
360 362 362 363 364 364 364 365 365 364 364 365 365 364 364 363 364 363 363 362 360 360 360 361 361 362 363 362 362 362 362 366 346 317 317 315 321 358 361 360 359 361 362 362 363 365 366 368 361 332 330 330 328 325 323 325 359 364 364 360 358 357 363 364 365 366 365 363 364 365 365 367 366 366 367 366 357 352 355 358 359 357 352 350 349
362 363 363 361 362 363 364 364 363 365 365 365 364 363 363 363 363 363 361 361 361 360 359 360 359 361 362 364 363 363 363 364 362 316 315 314 316 328 360 361 362 362 362 362 362 362 364 365 367 340 324 324 323 321 320 318 328 358 362 361 361 363 356 364 362 361 363 364 364 363 363 364 364 364 364 362 357 356 357 361 360 357 353 349 347
362 363 363 362 361 362 363 364 364 364 365 366 365 363 364 364 364 363 361 361 362 362 363 361 360 361 363 363 365 365 363 352 367 321 315 313 314 315 351 360 361 363 362 363 363 363 364 364 367 348 321 321 319 317 315 317 317 345 356 332 330 330 357 358 360 360 360 360 360 359 360 359 359 359 355 353 352 352 353 353 352 351 351 350 348
363 363 363 361 362 363 364 364 364 365 364 365 364 362 364 364 364 365 364 363 363 362 364 363 363 361 364 364 365 367 368 365 338 347 316 313 311 312 322 342 335 363 361 361 363 363 366 368 366 353 320 315 313 313 313 313 319 339 324 322 321 322 337 353 356 356 357 358 358 356 355 356 354 351 353 352 351 354 350 349 349 349 351 351 352
365 364 363 362 362 363 364 364 366 365 365 365 365 365 363 363 364 365 365 363 362 362 362 364 363 361 360 361 363 364 368 369 345 334 334 312 313 311 313 320 329 355 361 361 362 360 365 368 365 336 316 308 308 311 312 314 338 326 318 318 323 330 346 354 353 356 355 353 352 353 356 353 353 352 350 352 347 349 348 349 350 350 349 348 349
364 364 363 362 364 365 366 365 366 366 365 364 364 363 364 365 363 366 367 365 363 362 362 363 361 360 360 360 362 364 367 367 369 347 327 317 313 311 312 315 318 320 355 360 363 364 328 313 312 314 314 310 310 312 314 314 308 314 317 320 332 350 353 355 356 357 355 351 352 354 352 353 351 351 353 351 350 351 351 349 349 348 348 348 348
366 366 366 365 365 366 365 365 366 366 366 366 366 366 366 364 364 365 364 362 362 361 362 361 360 361 360 362 362 364 366 368 368 367 339 328 320 313 314 314 318 318 331 352 327 315 311 310 308 311 315 324 354 360 361 360 319 319 320 329 349 354 356 356 356 353 353 354 350 348 347 347 347 349 349 351 349 346 346 345 343 343 343 341 339
365 366 366 366 367 367 367 366 365 366 368 366 367 367 366 367 366 364 364 363 363 362 362 362 360 359 359 361 362 363 365 366 367 368 363 354 348 337 326 327 319 323 332 345 341 348 344 346 342 324 328 327 333 335 342 335 344 342 346 348 354 355 355 354 355 354 350 349 344 344 345 345 348 348 346 345 345 344 345 340 339 338 338 337 336
366 366 366 366 365 366 366 366 366 366 366 366 365 365 366 367 366 365 364 364 364 362 362 360 359 361 360 361 362 363 362 364 366 367 367 364 361 357 348 346 345 342 345 349 353 355 354 332 336 356 354 353 353 355 357 359 356 356 358 357 354 353 347 341 339 345 347 347 345 345 345 347 344 341 341 340 340 339 342 338 336 336 335 335 334
366 365 365 365 364 367 365 366 365 365 367 368 369 353 365 369 367 367 369 369 367 365 366 363 363 364 364 363 363 364 365 365 368 346 378 347 365 365 360 355 355 351 344 334 354 355 355 353 352 352 353 351 352 354 355 356 355 355 356 354 351 348 346 345 346 347 347 343 344 342 340 341 341 340 337 337 338 337 340 337 338 335 336 335 332
365 365 364 363 363 364 364 363 364 363 366 366 353 333 308 300 311 340 363 326 311 307 329 368 373 367 365 367 363 369 365 375 321 326 325 324 326 332 332 332 331 347 331 325 345 355 354 354 353 351 352 353 352 352 352 350 348 345 344 331 336 340 341 341 342 343 343 341 341 340 341 337 338 336 336 333 335 335 335 330 335 336 333 332 331
364 365 366 364 361 366 364 363 367 367 367 367 362 352 348 333 300 296 305 309 303 295 294 300 311 322 369 365 332 305 304 302 308 314 315 315 317 314 307 307 309 311 317 346 352 355 355 352 352 353 352 353 352 351 346 343 338 339 339 336 339 338 334 340 341 340 338 339 339 338 337 336 336 334 332 332 333 333 335 335 334 334 332 330 330
363 362 362 366 370 372 370 369 369 368 367 368 365 361 358 353 342 305 296 299 299 296 295 294 296 308 323 343 346 345 308 297 297 298 298 299 299 298 300 303 305 311 316 326 353 354 355 354 353 352 350 346 344 342 340 340 339 339 339 339 338 340 340 341 338 340 339 339 337 334 335 335 334 333 332 331 329 333 332 331 331 330 330 330 330
362 362 366 365 363 368 366 368 367 366 366 365 364 363 361 356 352 342 321 300 298 298 296 296 295 296 300 302 305 317 312 299 297 298 299 299 300 300 299 301 305 308 316 346 355 352 348 344 342 343 343 341 339 339 340 340 340 340 340 340 339 339 341 340 337 339 337 334 337 335 334 334 332 331 329 330 331 331 331 331 330 330 330 328 328
363 363 361 364 365 364 365 365 365 364 365 364 363 361 360 359 355 346 341 338 335 317 305 299 297 298 294 296 297 297 297 298 299 299 300 302 303 306 309 317 306 312 329 354 349 346 347 342 338 337 338 337 337 337 338 338 339 340 340 340 342 341 340 340 339 336 338 335 335 334 333 335 332 332 331 332 331 331 331 329 331 328 330 328 327
363 361 361 364 364 362 362 362 362 362 360 360 360 358 359 357 354 348 350 348 347 342 336 327 306 299 313 303 296 297 298 299 301 302 302 304 305 306 314 341 342 339 337 341 344 343 338 336 335 334 335 336 337 337 337 338 338 338 338 339 340 338 339 338 336 336 335 335 335 336 333 332 334 331 333 330 329 330 329 331 329 328 328 326 326
361 360 359 358 359 362 362 361 361 359 358 358 359 356 354 351 349 350 341 339 335 331 328 324 319 306 299 297 296 298 298 299 301 301 302 304 307 316 342 338 335 333 333 338 339 339 338 335 333 333 334 334 335 335 335 335 336 337 338 338 338 337 337 336 335 335 334 336 335 332 330 335 332 331 331 331 331 329 330 329 330 326 328 325 327
354 358 357 357 358 359 360 363 362 361 350 353 354 354 351 347 342 340 337 335 333 330 327 326 327 325 319 317 307 300 300 302 303 303 305 309 312 339 343 340 337 335 333 333 335 336 335 334 334 335 335 334 334 334 334 335 335 336 330 337 336 337 337 335 333 334 335 334 335 334 334 335 333 334 330 331 329 329 329 329 329 327 325 323 321
343 341 346 353 354 351 352 353 349 344 353 353 353 350 345 342 340 336 334 331 330 329 330 333 328 331 328 327 328 326 319 308 308 311 314 317 331 341 340 340 338 336 333 333 333 333 333 333 335 334 335 334 334 335 334 334 334 335 334 334 334 333 327 329 328 335 334 334 333 333 334 332 334 332 329 332 329 328 328 328 327 327 326 324 324
343 332 329 333 337 348 346 345 346 349 349 349 347 343 339 337 335 334 334 335 336 337 336 338 337 333 331 333 333 331 329 334 334 333 334 335 335 336 336 336 335 333 332 331 331 331 331 331 330 331 332 332 332 333 333 332 333 333 334 333 334 333 332 333 333 333 332 332 332 331 331 332 332 332 332 330 329 329 330 330 329 327 326 325 324
346 343 338 334 340 339 341 343 343 343 341 341 340 339 337 337 336 335 335 336 337 337 335 333 331 332 333 334 334 335 333 330 329 329 328 329 329 329 329 327 327 325 325 325 326 325 324 324 324 324 324 325 325 325 327 328 330 331 332 331 332 333 333 333 332 332 332 332 331 331 330 331 331 332 333 332 328 328 329 327 327 329 328 326 324
345 343 342 336 336 341 339 338 338 340 340 340 338 337 335 334 334 334 334 333 333 332 331 329 327 326 323 317 313 319 329 327 325 324 323 323 324 324 325 325 325 323 323 321 322 322 321 319 319 319 319 320 321 321 322 323 326 327 327 328 329 329 330 331 331 331 331 330 331 331 331 331 330 331 329 329 324 326 328 327 327 328 327 328 326
343 342 342 340 340 338 335 334 335 335 335 334 333 332 331 332 332 332 330 328 326 324 323 321 320 318 311 306 307 310 323 325 324 322 321 319 318 318 319 320 321 320 318 317 318 319 318 317 316 315 314 315 316 318 319 320 321 323 323 323 324 325 326 326 326 327 328 329 330 330 330 330 328 328 329 323 329 329 329 328 328 326 327 327 326
342 341 342 340 339 336 334 333 333 333 333 331 330 329 328 328 328 328 327 326 325 323 322 320 319 319 317 309 312 312 323 322 320 318 317 317 315 314 316 320 319 318 318 318 319 320 320 318 317 315 314 313 313 315 317 318 319 321 320 321 321 322 323 325 326 326 327 328 328 327 329 330 330 329 328 329 328 328 327 327 326 326 326 326 328
341 339 337 337 337 336 334 332 330 329 328 327 327 327 326 326 326 326 325 324 324 322 321 320 320 319 320 318 318 321 322 321 319 317 315 315 314 314 314 315 315 317 319 320 321 320 320 319 319 319 318 316 316 317 319 319 320 318 318 319 318 313 317 319 319 319 318 319 321 325 328 328 328 330 328 327 328 327 327 326 325 325 325 325 325
342 338 337 335 334 333 331 330 329 327 326 327 326 326 325 325 324 323 323 322 321 322 321 321 321 320 320 320 319 318 317 316 315 314 313 314 314 315 314 313 313 313 313 313 314 316 316 315 314 313 313 312 312 311 311 312 314 315 316 317 316 312 310 310 310 310 312 314 315 318 322 325 328 330 331 330 329 328 326 326 325 323 323 324 324
339 337 334 333 332 330 329 329 327 327 326 324 324 324 324 324 323 321 320 320 319 318 318 318 319 319 316 315 314 313 313 314 314 312 312 312 312 312 312 312 313 313 313 312 312 313 313 313 313 313 312 312 311 311 311 310 309 309 309 309 308 307 307 308 308 309 317 323 322 320 318 319 322 324 325 327 329 329 329 329 328 326 325 324 324
338 338 338 334 332 330 330 329 328 326 324 323 322 321 321 321 320 319 318 317 317 317 317 316 315 315 316 316 315 312 311 311 311 310 309 308 309 309 309 310 310 311 312 312 313 312 312 312 312 312 312 312 311 310 310 309 309 308 309 307 305 304 304 302 304 308 313 321 324 323 324 320 320 322 323 324 326 327 328 327 327 327 327 326 325
333 331 332 332 332 330 330 327 323 321 320 320 319 317 316 316 316 316 316 314 314 313 313 312 312 312 312 312 313 311 309 309 309 308 307 307 306 306 307 308 307 307 307 308 309 309 309 309 309 309 308 308 307 306 306 305 305 305 305 304 301 298 296 295 303 310 315 315 316 318 320 320 322 323 324 324 325 324 324 324 325 326 325 325 324
329 329 328 329 332 331 329 327 325 322 318 317 316 315 315 315 313 313 312 312 311 310 310 310 310 310 309 308 308 309 307 307 306 305 304 303 303 303 303 303 304 304 304 304 305 305 306 307 306 307 306 306 305 303 303 303 302 302 301 300 296 291 291 291 297 305 300 307 314 319 321 322 322 322 322 323 323 324 324 323 324 323 323 324 324
325 324 324 324 324 327 326 325 322 318 316 316 315 313 313 313 313 312 311 310 310 310 309 309 309 309 308 306 305 305 306 305 304 303 303 303 302 302 302 302 303 303 303 303 304 305 304 305 306 305 305 305 304 303 302 301 300 299 298 296 290 289 290 291 295 296 299 312 317 320 320 321 321 321 322 322 322 322 322 321 321 321 322 324 324
318 316 316 317 318 318 316 314 313 312 310 309 308 308 308 309 309 311 311 310 310 309 308 307 306 306 305 305 304 303 302 301 301 301 301 301 301 301 301 301 301 302 302 303 303 303 303 304 304 304 305 305 304 303 302 300 299 298 293 290 289 289 290 291 298 292 291 295 312 319 320 319 320 319 319 320 321 321 318 318 320 321 321 322 322
Wind_Speed
21 18 17 18 18 18 18 17 18 15 16 15 14 14 13 13 12 12 11 11 10 11 11 11 11 10 10 10 11 10 10 10 9 9 9 9 9 9 8 8 9 8 8 8 8 8 8 8 8 8 7 7 7 7 7 7 7 7 6 6 7 7 7 8 9 10 8 7 8 8 8 9 9 8 9 9 9 8 10 10 11 10 10 10 10
20 19 18 18 20 19 19 17 17 15 17 16 15 14 13 13 12 12 12 11 11 12 12 11 11 11 11 11 10 10 10 10 10 9 10 10 10 9 9 10 10 9 8 9 9 8 8 9 9 9 8 9 8 8 8 7 7 7 7 7 7 7 7 8 9 9 10 7 8 8 9 8 9 9 10 11 10 8 10 9 8 10 10 10 10
20 18 18 18 20 19 18 17 17 18 18 16 17 16 15 14 13 13 13 12 12 11 12 12 11 12 11 10 10 10 10 11 10 10 10 10 11 10 9 10 10 10 10 10 9 9 9 9 9 8 7 9 9 9 8 8 7 7 8 7 8 8 8 8 8 9 11 9 8 9 8 8 9 9 9 9 9 9 10 10 10 9 9 11 10
20 20 19 20 21 19 18 17 19 19 19 17 18 17 16 15 14 14 14 12 12 12 12 12 12 12 12 11 11 11 11 11 10 11 11 11 10 10 10 10 10 10 10 10 10 10 10 10 9 9 8 8 8 8 8 8 8 7 8 8 8 9 8 8 9 9 9 10 8 9 8 9 9 10 9 9 10 10 9 9 10 11 11 11 12
20 20 20 21 21 20 20 19 19 19 19 17 19 18 17 15 14 15 14 14 13 12 11 12 12 12 12 12 12 12 12 12 11 11 11 10 11 10 10 10 10 10 10 10 9 10 10 10 10 9 8 9 8 8 8 9 8 8 8 8 8 8 7 7 8 9 10 11 10 8 8 9 9 10 9 10 10 10 10 10 10 10 11 12 11
21 20 20 20 20 22 20 20 20 20 20 18 19 18 17 16 15 14 15 15 14 13 13 12 12 13 12 12 12 12 11 11 12 12 12 11 10 10 10 10 10 10 10 10 10 10 10 11 10 10 9 9 9 8 8 9 9 9 9 8 7 7 8 9 9 9 10 11 10 10 8 9 8 8 9 10 11 10 10 10 10 10 10 10 11
20 20 20 21 19 21 20 20 19 19 18 18 16 16 17 17 16 15 14 15 15 14 13 13 12 13 13 12 12 12 12 12 11 12 12 11 11 11 11 11 11 10 10 11 11 11 11 11 10 10 10 10 10 10 9 9 8 9 9 8 8 8 8 8 8 10 10 11 10 10 9 8 8 10 7 9 10 10 11 12 12 9 9 10 10
20 20 19 19 19 21 20 19 18 17 16 16 16 16 16 16 15 14 14 15 15 15 15 14 13 12 12 12 12 12 12 12 12 12 11 12 11 11 11 11 11 11 11 11 11 11 11 11 12 11 11 10 10 10 9 8 7 8 8 8 8 8 8 8 8 9 9 10 9 9 9 9 9 9 9 9 10 10 9 11 13 12 12 10 10
20 20 19 19 18 18 17 17 16 16 16 16 15 15 15 15 14 14 13 13 13 14 14 14 13 13 13 13 13 12 12 12 11 11 12 12 12 12 12 12 11 11 11 11 10 11 11 11 11 12 10 10 11 9 8 6 6 7 7 7 8 8 8 8 8 8 9 9 9 9 10 10 9 9 10 10 10 11 9 9 10 10 11 12 10
19 20 20 19 18 17 17 15 16 16 16 16 16 15 15 14 14 14 14 14 13 12 13 13 13 13 13 13 13 11 11 10 11 14 13 11 12 11 10 11 11 11 10 10 11 11 11 11 11 12 9 8 9 11 12 12 11 11 9 8 8 9 9 9 9 9 9 10 10 10 10 10 10 10 11 11 11 11 11 8 11 11 10 11 10
20 20 19 18 17 17 16 16 15 17 16 15 15 15 15 14 14 14 14 14 13 12 12 14 14 13 13 13 13 12 11 11 14 15 15 13 11 11 10 10 10 10 10 10 10 10 10 11 11 10 10 10 11 13 13 14 15 15 16 15 12 11 10 11 11 10 10 11 11 11 11 12 11 11 11 12 11 11 10 10 11 12 11 12 15
21 19 18 17 17 18 17 17 17 17 16 16 16 16 15 14 14 14 14 14 13 13 13 13 13 13 11 13 13 13 12 12 15 16 16 16 13 10 10 9 9 10 10 10 10 10 11 10 10 9 10 11 10 11 14 16 16 16 17 16 16 17 15 13 12 11 12 12 12 11 11 11 11 11 11 11 11 11 12 12 13 13 13 14 13
19 18 18 18 18 17 16 17 17 16 17 16 15 15 15 15 15 15 16 14 13 13 13 13 13 13 12 12 13 13 12 13 16 17 17 17 17 14 11 10 9 10 10 10 11 10 10 9 9 9 9 10 10 11 10 10 16 20 18 18 17 16 17 18 17 14 13 14 14 13 11 11 12 11 11 12 12 14 12 11 11 11 10 11 13
18 18 18 18 18 17 17 17 17 17 16 16 15 16 16 16 16 14 13 13 13 13 14 14 13 13 13 13 12 12 13 13 17 18 18 18 17 15 13 12 11 11 11 11 10 11 11 10 10 10 10 9 10 10 10 11 8 9 10 10 11 14 17 19 19 19 17 14 15 15 14 12 13 12 12 12 14 14 12 12 12 14 13 13 14
17 18 18 18 17 17 17 17 17 16 16 16 16 16 16 15 15 14 13 14 14 14 14 14 13 13 14 14 13 13 13 13 18 19 18 19 18 15 13 12 11 11 11 12 12 11 11 11 11 11 10 10 9 9 10 9 9 9 10 10 10 10 10 11 13 12 11 12 13 15 15 14 14 13 12 11 12 11 11 14 14 15 15 17 15
17 17 18 18 18 18 18 17 17 16 16 16 16 16 16 15 15 14 13 13 12 12 13 13 14 14 14 14 14 14 13 15 17 18 19 18 18 11 13 12 12 12 12 12 12 11 11 12 11 12 11 11 11 11 10 10 10 10 10 11 11 12 12 12 12 10 10 10 10 11 11 11 10 10 11 12 13 14 14 13 11 14 15 15 16
18 18 18 18 18 18 18 18 17 17 17 16 17 17 16 16 14 13 13 13 13 14 13 13 13 14 15 15 15 13 14 14 17 18 18 19 14 11 12 12 11 13 13 12 12 12 12 12 12 11 12 12 12 11 12 10 11 11 11 12 11 11 11 10 10 15 16 18 20 18 16 14 14 15 15 16 13 12 10 11 14 13 13 13 16
18 18 18 18 18 17 17 18 17 17 16 17 17 16 15 14 14 14 14 14 14 14 13 13 13 14 15 15 15 14 15 14 18 18 19 19 17 13 11 11 12 11 12 12 11 11 12 15 14 13 13 12 12 10 11 10 10 11 12 12 12 12 11 10 10 8 16 16 14 15 14 14 14 16 16 17 17 11 7 11 13 13 12 11 13
19 19 18 18 16 16 17 17 17 17 16 16 16 16 16 15 14 13 14 14 14 13 12 12 13 13 14 15 15 16 15 12 18 19 20 21 17 13 12 11 11 12 11 11 12 11 12 12 15 15 14 13 13 10 9 9 10 10 11 11 12 12 10 10 10 11 7 5 5 6 7 11 12 10 11 18 20 16 10 11 11 12 13 14 14
19 17 16 16 16 16 15 16 16 16 16 15 14 14 14 13 14 14 14 13 13 13 13 12 13 12 13 14 14 16 16 12 15 21 21 21 22 14 12 11 12 12 11 11 10 11 11 11 12 17 19 18 17 15 12 9 9 10 10 11 11 11 10 10 8 7 8 7 9 11 11 9 9 8 8 9 11 12 11 10 10 10 12 12 12
16 15 15 16 16 16 15 16 17 16 15 14 14 14 13 13 14 14 14 13 13 13 14 13 13 12 12 13 13 15 14 15 12 21 20 21 22 19 13 12 12 11 11 10 11 11 10 10 10 13 19 19 19 18 16 13 9 9 10 11 11 9 8 9 11 12 11 10 9 8 8 8 8 8 9 9 8 6 6 9 9 10 10 12 13
15 15 15 16 16 16 16 15 15 14 14 13 14 14 13 13 13 14 13 12 13 13 12 12 11 11 11 12 12 12 13 15 12 18 21 22 21 23 14 14 12 11 11 10 10 10 10 9 9 9 16 17 17 16 16 14 11 7 9 12 14 12 7 8 8 9 10 10 10 9 9 8 8 9 8 7 7 5 6 7 8 9 10 11 11
15 15 15 16 15 15 15 16 14 12 13 15 15 14 13 13 13 12 12 11 12 13 12 11 11 11 10 10 11 11 12 11 16 12 20 21 22 22 21 16 13 12 11 12 10 10 9 9 8 8 12 14 14 14 13 12 6 8 12 13 10 6 5 7 8 9 9 9 8 8 7 8 8 7 6 5 5 6 8 8 9 9 9 10 10
14 14 14 15 14 14 14 15 14 13 14 14 14 13 13 13 12 11 11 11 11 12 12 11 11 11 12 12 11 12 11 11 13 16 15 22 21 22 22 21 15 13 12 12 12 10 10 10 5 6 12 11 11 10 9 7 6 8 6 5 4 4 5 6 7 7 7 7 7 7 7 6 6 5 4 4 6 7 8 8 7 8 9 9 10
14 14 14 14 14 13 13 13 14 13 13 14 14 13 14 13 12 12 12 12 11 11 11 12 12 12 12 12 12 11 11 12 11 13 19 20 21 21 21 22 21 15 12 12 13 6 8 13 13 10 8 7 6 4 3 6 8 2 3 4 4 4 5 5 6 5 5 6 7 7 6 4 3 4 4 5 6 7 6 6 6 8 8 8 9
13 13 13 13 13 13 13 13 13 14 13 12 13 12 12 13 12 12 12 13 12 12 12 12 13 12 12 12 12 11 12 10 11 10 13 14 16 19 21 21 20 19 15 11 9 11 9 11 11 10 8 6 4 3 5 2 7 7 7 6 4 6 7 6 5 5 6 6 5 4 4 4 4 4 5 5 5 4 5 6 7 7 6 7 8
12 12 12 12 12 12 13 11 11 12 13 11 12 12 12 11 12 12 12 12 12 12 12 12 13 12 12 12 11 10 11 11 11 9 10 10 9 10 11 12 13 10 8 8 6 2 6 2 5 7 7 6 4 5 4 8 5 6 7 7 6 6 5 6 7 6 4 3 3 3 3 3 3 3 3 4 4 4 5 7 7 7 7 7 8
11 11 12 11 11 12 12 12 12 11 12 12 11 12 12 12 12 12 12 12 12 12 12 12 12 12 12 11 11 10 10 10 10 10 10 10 10 10 11 11 10 9 9 9 9 9 5 7 7 4 3 4 5 6 7 7 7 7 6 4 4 4 3 7 3 2 3 3 3 2 3 2 3 3 4 4 5 5 5 6 6 7 7 8 8
9 10 11 10 11 10 11 11 11 10 10 12 5 2 2 8 11 12 13 10 10 12 12 10 11 11 11 10 10 10 8 10 10 9 8 6 9 9 10 10 10 9 12 12 9 9 9 7 7 9 9 9 8 8 8 7 5 5 5 4 3 4 6 6 4 3 1 2 1 2 2 2 2 3 4 4 4 5 4 5 5 6 7 7 8
9 9 10 10 10 10 10 10 11 11 10 10 8 6 10 12 10 4 1 10 12 11 6 5 4 9 11 6 1 6 8 3 6 7 10 9 7 6 5 10 13 10 14 18 11 9 10 9 10 10 9 9 9 9 7 6 6 4 4 1 2 3 2 2 2 2 1 1 2 2 1 2 2 3 4 4 4 4 3 4 5 6 7 7 7
8 8 8 8 8 9 9 9 9 10 10 9 9 9 6 8 15 15 10 9 11 11 11 11 11 10 2 4 5 12 10 10 10 8 7 6 5 10 13 14 15 17 19 14 11 10 9 10 9 9 9 9 8 7 6 6 5 3 3 4 4 3 2 2 2 1 1 1 0 1 1 2 2 3 3 3 4 5 4 4 4 5 6 6 7
7 8 8 6 3 7 7 8 8 9 9 8 8 9 8 7 5 13 14 12 13 13 13 12 12 9 8 8 7 4 7 9 10 11 12 13 12 11 12 14 16 18 19 15 9 9 9 8 6 5 5 5 6 5 6 6 5 5 4 4 4 3 2 3 2 1 1 1 1 1 1 1 2 2 3 3 4 4 4 4 4 5 6 6 7
7 7 5 4 4 2 6 7 8 9 9 8 8 8 8 8 8 5 8 12 14 15 15 14 12 10 10 12 11 9 10 10 12 13 14 15 15 14 13 13 14 15 13 8 9 8 6 7 7 6 7 6 5 5 5 4 5 4 3 3 3 3 3 4 2 2 0 2 1 0 1 1 1 2 3 3 3 3 3 4 4 5 5 6 7
3 2 3 6 6 4 5 6 6 6 6 6 7 8 8 8 7 7 7 5 6 10 14 15 13 10 12 11 14 14 14 13 14 15 16 17 17 17 16 10 10 7 3 8 9 10 10 10 9 9 7 6 5 4 4 4 3 3 3 2 2 3 3 2 2 1 1 2 1 1 1 2 1 2 2 3 2 2 3 3 4 5 5 6 6
4 8 13 7 2 5 5 4 4 4 5 6 6 7 8 8 8 8 9 9 8 6 4 6 11 13 7 8 11 15 15 15 15 16 17 16 17 17 18 14 10 6 6 6 6 7 6 3 4 6 8 8 6 5 4 4 4 3 3 3 3 3 3 3 2 1 0 1 1 1 1 2 2 2 2 2 3 3 3 3 3 4 4 5 5
4 5 4 3 1 1 4 5 4 4 5 7 7 7 7 7 8 7 5 6 7 7 6 6 6 8 14 14 12 14 16 15 14 14 15 15 14 11 11 9 8 6 7 7 7 8 8 6 5 4 5 6 5 5 4 4 4 3 2 2 3 2 3 3 2 2 1 2 1 1 3 3 1 2 2 1 1 2 2 3 3 3 4 5 5
7 3 4 3 3 3 1 3 5 5 6 7 7 8 8 8 8 8 7 8 8 8 9 8 9 9 10 9 12 14 15 16 14 11 8 6 3 2 7 8 9 9 8 8 8 9 8 7 6 6 6 5 5 5 5 4 4 3 2 1 1 1 2 2 2 1 2 2 1 1 3 2 2 2 3 2 2 2 2 3 2 2 3 4 6
9 9 9 6 5 5 4 3 5 6 7 5 6 9 9 9 9 9 10 8 8 8 8 9 9 10 11 9 9 9 11 13 15 12 9 8 7 7 7 8 9 9 8 8 7 8 7 6 6 6 6 5 5 4 4 4 4 3 4 3 3 2 1 4 3 3 2 2 3 2 3 2 2 2 2 2 2 2 2 2 3 3 2 2 3
8 11 13 13 8 4 5 6 6 6 6 8 9 8 9 10 9 10 10 10 9 9 9 10 9 10 11 11 11 11 12 9 8 9 8 7 7 8 8 8 8 8 8 8 8 8 8 7 7 6 6 6 6 5 4 4 2 2 1 3 4 5 7 6 3 2 6 5 1 3 3 3 3 2 3 3 2 2 2 2 2 3 3 3 3
7 7 7 6 5 6 5 6 6 6 6 6 7 8 9 10 11 11 10 10 10 10 9 9 10 10 10 11 12 11 10 10 9 8 8 8 8 9 9 9 8 8 8 8 7 7 8 7 7 7 7 7 7 6 5 4 3 2 1 1 3 3 3 2 2 4 4 2 4 4 4 4 3 4 4 3 2 3 2 3 2 3 3 3 3
8 8 7 6 5 6 7 7 7 7 7 7 7 7 7 8 8 9 9 10 10 11 10 9 8 6 5 9 12 11 11 10 10 9 9 9 9 10 10 9 9 8 8 7 7 7 7 7 7 7 6 6 6 5 5 4 3 3 2 2 1 1 0 2 2 2 3 4 5 5 5 4 4 4 5 3 2 5 4 3 4 3 3 3 2
8 7 7 6 7 7 7 8 8 8 7 7 7 6 7 7 7 8 9 9 10 10 10 10 9 7 12 17 13 14 12 10 9 9 8 8 9 9 9 9 8 8 7 7 7 7 7 7 7 6 6 6 5 5 4 4 3 3 3 3 2 1 0 1 1 1 3 3 3 4 6 7 7 5 5 5 5 4 4 4 4 4 4 4 4
8 6 5 5 5 5 6 7 7 8 8 8 8 8 8 7 8 9 9 10 9 9 9 9 10 9 10 11 13 13 11 10 9 8 8 8 8 7 7 8 8 8 8 7 7 6 7 7 7 7 7 6 6 5 5 4 3 3 3 2 2 2 1 1 2 2 3 4 4 4 5 6 6 7 8 7 6 7 7 6 6 6 6 6 5
5 5 5 5 4 5 6 7 8 8 8 9 9 8 8 8 8 9 10 10 10 10 10 9 9 9 9 8 9 10 10 9 9 8 8 8 8 7 7 6 7 7 7 7 7 7 6 6 7 7 7 6 6 5 4 3 3 3 3 2 2 3 3 3 3 4 5 5 5 5 5 5 6 7 7 8 8 8 8 9 9 8 8 8 7
3 4 3 4 5 5 6 7 8 8 8 8 8 8 8 7 8 8 9 10 10 10 9 10 10 10 9 9 9 10 10 9 9 8 8 8 8 8 7 7 7 7 6 6 6 6 6 6 7 6 6 6 5 5 4 4 4 4 4 4 4 3 3 4 4 4 4 5 6 6 6 6 6 7 7 8 8 9 9 9 9 9 9 9 9
4 3 4 4 5 6 7 7 7 7 7 8 8 8 7 7 8 8 8 9 9 9 9 9 9 9 8 9 9 9 8 8 8 8 7 7 8 7 7 6 6 6 6 6 6 7 6 6 6 6 6 6 5 4 4 4 4 4 3 4 4 4 4 4 4 5 6 5 4 5 6 6 6 7 8 8 8 9 10 10 11 10 10 10 10
3 4 3 3 4 6 6 6 6 6 6 7 7 8 7 7 8 8 8 9 9 9 9 9 9 9 9 10 9 9 8 8 8 8 8 8 8 7 7 6 6 7 7 7 7 7 7 6 6 6 6 6 6 6 5 5 5 5 5 5 6 6 5 6 6 5 5 5 6 6 6 6 6 6 6 6 7 8 9 10 10 11 11 11 12
2 3 4 3 4 5 6 7 8 7 7 7 7 7 8 8 8 8 8 8 9 9 9 9 9 9 9 9 8 8 8 8 8 8 8 8 7 7 7 7 7 7 7 7 7 7 7 7 7 7 7 7 7 7 7 6 7 7 7 7 7 8 10 12 7 7 6 7 6 6 6 6 6 7 7 7 7 8 8 8 8 8 8 9 10
3 3 4 3 2 4 5 7 7 7 7 6 7 8 8 8 8 8 8 8 8 8 8 9 9 9 8 9 9 8 8 8 8 8 8 8 7 7 7 8 8 7 7 7 8 8 8 7 8 7 7 7 7 7 7 7 7 8 8 8 10 15 14 12 9 7 11 8 6 6 6 6 7 7 7 7 7 7 7 7 7 8 9 8 8
4 5 5 6 6 5 5 6 7 7 8 7 7 7 7 8 8 8 8 8 8 8 7 8 8 8 8 7 7 7 7 8 8 8 8 7 7 7 7 7 7 7 7 7 7 7 7 7 7 7 7 6 7 7 7 8 8 9 9 9 12 13 12 13 10 8 8 6 7 5 6 6 7 7 7 7 7 7 7 7 7 7 7 8 8
7 7 7 8 7 7 7 7 7 7 7 7 8 7 8 8 8 8 8 8 8 8 8 8 8 7 7 7 7 8 8 8 8 8 8 8 7 7 7 7 8 8 7 7 7 7 6 6 6 6 6 6 7 7 7 8 8 8 9 12 14 16 15 13 9 12 13 8 8 7 5 6 6 7 7 7 7 7 8 9 8 8 7 7 7
Wind_Direction
186 188 187 191 190 192 194 193 196 197 199 200 203 204 204 206 205 208 199 203 196 194 196 200 201 203 209 210 213 211 211 213 210 208 210 214 217 218 222 211 220 228 229 236 238 236 237 239 238 234 237 240 238 240 240 232 229 235 236 233 237 235 235 245 256 268 268 261 268 272 278 282 273 257 255 256 257 244 228 243 245 245 245 246 249
189 186 188 189 191 193 193 192 194 195 198 199 202 202 203 203 204 204 205 200 200 198 197 198 202 203 208 209 211 212 208 210 213 210 212 213 215 213 216 215 218 224 227 230 233 239 237 239 240 237 231 237 241 242 243 242 232 232 228 230 236 234 226 236 243 262 274 267 261 264 270 260 264 253 255 258 262 257 253 250 248 246 248 253 249
188 185 187 188 191 192 193 192 191 195 198 199 202 202 201 202 201 202 205 201 199 204 199 202 198 202 207 207 207 210 207 208 212 214 213 214 215 218 215 213 216 220 221 226 230 231 237 238 240 239 235 232 233 242 247 246 247 244 240 235 235 239 235 227 242 257 268 272 269 271 265 261 259 266 256 255 258 256 256 256 256 253 247 245 252
188 186 187 189 189 189 191 192 192 195 198 200 202 204 203 201 198 201 203 207 200 200 204 202 199 199 203 205 205 206 205 208 210 212 213 213 214 217 220 218 218 221 225 227 227 229 235 238 243 244 238 236 238 242 239 240 240 236 240 240 241 243 243 238 233 249 264 275 269 266 273 275 272 266 265 256 258 258 255 256 253 257 258 256 252
189 188 188 188 188 189 191 192 194 196 198 200 202 203 205 203 198 201 202 207 205 198 200 203 201 200 203 203 204 205 205 207 209 212 212 212 215 217 218 220 222 224 227 228 231 233 235 239 241 240 237 239 239 239 240 237 234 238 237 237 239 240 238 239 243 246 260 268 277 277 278 274 272 274 272 273 269 262 253 247 251 256 257 258 261
189 188 189 189 188 189 191 193 195 196 199 201 202 202 204 205 199 198 203 204 205 204 198 200 201 202 204 204 205 205 206 209 209 212 213 212 213 218 218 221 223 225 226 228 228 230 235 237 240 240 238 236 239 240 242 242 239 238 241 242 245 243 248 254 254 258 261 267 273 280 273 273 277 274 281 282 283 283 277 268 257 249 251 256 260
188 188 189 190 188 190 190 193 194 196 198 201 201 201 204 203 203 199 200 203 203 205 201 201 202 202 202 205 206 206 208 209 209 209 214 216 215 217 221 221 225 225 227 229 231 231 233 236 238 237 237 235 236 239 240 241 242 246 243 246 243 249 253 251 252 257 262 266 268 268 274 273 276 286 287 289 287 285 287 290 288 276 262 259 266
187 188 188 190 189 191 191 190 192 195 195 196 199 201 201 203 202 200 197 202 204 205 205 200 202 202 203 205 207 208 208 209 208 208 210 213 215 217 220 225 226 226 228 231 234 236 236 237 238 236 233 233 234 237 239 243 247 247 245 246 248 251 256 256 256 260 263 266 266 275 279 285 280 274 280 280 281 277 269 283 290 297 296 290 286
187 187 187 189 189 190 188 187 190 192 193 192 196 198 198 199 199 198 197 202 205 206 207 204 201 204 204 206 207 208 209 210 209 207 207 209 215 217 219 221 225 229 232 233 232 236 242 244 244 243 237 229 229 237 249 268 258 256 254 251 254 257 258 261 262 263 267 268 272 272 275 275 275 278 282 284 286 288 289 286 284 285 290 295 295
186 187 188 189 187 186 185 184 185 188 189 190 192 193 195 194 196 198 197 200 202 205 206 207 205 204 205 206 207 208 210 211 203 202 206 209 209 218 218 221 225 227 228 232 237 237 237 242 245 244 242 232 215 215 226 237 244 255 264 263 260 259 258 261 263 265 269 272 274 276 276 277 283 287 293 291 289 285 281 279 284 290 291 289 284
186 187 188 187 183 181 181 183 183 185 187 188 187 189 191 191 193 195 197 198 201 200 205 207 210 208 207 207 207 208 209 210 190 189 199 212 217 214 218 221 220 224 226 228 235 237 240 240 247 239 224 220 222 216 221 224 231 238 245 251 257 263 270 268 267 267 269 271 272 274 275 280 282 288 289 290 291 297 299 297 294 295 296 300 298
185 186 185 182 180 179 180 180 181 183 184 185 185 186 188 189 191 192 195 196 198 200 202 206 210 213 212 212 212 211 213 202 181 186 193 199 209 219 220 222 222 222 224 229 230 233 237 241 240 241 239 237 240 220 214 221 226 231 238 241 242 245 248 255 263 267 266 269 269 270 278 279 286 288 289 291 294 294 293 292 291 290 291 291 288
183 183 181 180 179 179 178 179 181 181 183 183 183 183 187 190 191 193 197 197 196 201 204 204 207 212 216 216 218 215 219 187 181 185 191 195 200 214 229 232 229 227 226 226 230 232 234 237 241 239 243 220 227 242 247 224 213 225 231 236 243 243 244 244 245 250 262 265 269 272 272 278 278 281 289 294 297 293 294 289 285 283 283 283 284
181 180 179 179 178 177 178 180 182 182 181 181 183 185 188 192 195 195 197 197 200 203 204 206 208 209 214 217 219 223 225 180 181 185 190 192 196 201 224 230 235 236 233 231 230 231 231 234 236 239 238 235 236 236 237 242 243 218 220 229 237 233 228 234 238 239 239 252 262 269 269 272 277 284 288 287 287 288 291 288 291 289 288 284 291
180 180 179 178 177 178 179 181 182 181 182 183 185 189 190 193 196 198 200 200 200 203 205 205 208 209 210 214 217 221 228 186 180 185 189 191 193 197 218 225 231 234 235 235 236 236 234 233 238 243 242 239 237 233 237 239 241 252 257 252 240 241 239 231 221 220 222 225 237 246 262 267 270 268 264 263 264 268 279 292 295 292 288 289 286
180 180 180 179 179 180 181 183 182 181 182 184 187 191 192 193 195 196 202 203 202 201 205 208 207 208 210 213 217 221 225 189 182 185 188 190 186 198 214 223 227 231 233 234 236 235 235 237 239 242 243 243 235 220 228 243 254 260 260 260 266 266 263 254 252 257 257 248 232 249 261 264 277 281 288 290 289 287 290 291 294 291 292 294 293
181 180 183 182 182 182 183 183 182 183 184 186 190 192 191 192 193 193 200 204 202 202 204 207 208 209 209 211 214 218 226 196 180 184 187 185 180 205 212 221 226 228 234 232 233 234 234 233 234 242 245 243 235 213 206 214 246 253 259 266 269 272 273 278 233 219 227 235 248 251 249 254 259 264 266 267 266 279 293 289 281 283 285 287 292
182 181 185 185 183 183 183 183 184 185 186 189 191 191 191 192 193 193 198 203 206 205 203 208 209 210 210 211 210 217 225 199 179 182 184 178 187 202 212 218 224 227 231 232 232 233 232 228 234 239 245 246 242 219 199 190 234 252 260 265 265 264 267 268 275 243 209 228 237 243 253 261 263 266 268 267 264 258 242 261 277 290 286 287 288
183 184 186 185 182 181 183 183 184 185 187 190 190 190 192 192 194 194 200 203 208 207 207 208 209 210 213 213 203 214 226 205 176 182 183 181 190 206 212 219 221 226 227 229 229 232 235 226 221 231 240 249 251 240 205 194 238 251 258 263 264 265 268 276 273 278 285 261 234 229 245 244 247 246 247 245 245 244 233 245 269 279 283 290 293
188 186 182 181 181 181 182 183 186 187 189 190 191 193 192 194 196 195 199 202 203 208 207 210 212 211 212 214 209 212 222 222 179 184 183 185 191 201 213 216 222 223 226 229 229 229 231 235 216 209 227 238 247 249 235 199 233 249 258 261 266 269 273 265 278 318 320 312 305 296 293 290 277 255 235 234 232 227 226 233 246 269 280 283 290
184 181 181 182 180 181 182 183 186 187 188 188 191 193 195 198 196 196 200 202 203 206 208 210 213 215 215 211 217 214 216 222 184 183 185 187 192 200 214 216 219 222 225 227 230 233 231 230 243 200 206 222 233 240 245 231 224 246 251 259 263 279 323 293 299 307 295 292 290 280 280 285 291 291 285 292 296 284 243 229 249 265 271 280 287
180 179 180 182 180 181 183 183 184 185 186 186 190 195 197 199 198 198 204 203 204 204 205 211 213 215 217 214 218 220 210 206 213 182 187 190 191 200 210 217 217 219 224 231 230 234 235 236 240 200 191 210 222 231 238 240 220 225 244 252 262 282 310 298 295 286 282 286 285 286 288 290 295 297 297 291 284 280 298 308 310 311 305 305 304
176 177 178 180 180 181 182 179 181 183 186 188 191 194 195 199 199 199 203 204 202 202 202 207 212 215 215 218 222 220 224 201 209 185 190 189 193 197 208 216 210 220 229 230 230 238 237 239 241 204 176 197 209 220 229 234 203 226 236 245 265 326 309 269 273 277 274 276 282 285 289 284 285 284 280 301 314 329 318 315 309 299 293 290 289
174 175 175 179 178 180 180 181 180 184 186 187 191 191 194 195 196 198 199 202 203 205 210 209 215 218 220 224 221 224 220 225 201 189 182 195 192 196 203 215 218 219 226 236 236 237 239 241 242 156 171 183 197 208 223 211 227 228 231 269 280 266 269 264 255 252 261 272 275 274 275 284 281 284 313 336 322 320 307 300 295 296 296 296 295
172 174 174 177 177 178 179 181 183 185 185 187 189 191 193 191 194 197 198 201 203 204 206 210 215 218 222 222 223 219 218 220 225 190 184 189 195 195 201 207 218 224 228 235 243 248 58 68 77 85 103 110 132 164 174 207 231 266 82 149 207 235 222 248 263 265 252 251 258 273 282 272 298 318 341 321 303 292 289 298 308 300 295 297 302
172 173 173 175 177 178 179 182 185 187 186 188 190 191 190 191 194 196 200 205 208 210 211 212 213 215 218 220 220 218 218 219 224 206 183 187 194 196 199 204 212 216 220 236 49 53 71 81 89 104 110 120 166 208 259 142 143 146 152 177 213 234 242 246 252 245 250 261 274 276 292 316 319 338 312 288 299 319 325 321 318 317 326 323 318
171 173 174 175 176 181 180 184 184 186 188 187 190 191 191 192 193 195 196 199 202 206 210 211 213 215 219 220 218 218 214 216 217 211 176 185 191 191 201 211 216 217 225 241 240 183 98 127 77 64 70 86 46 40 78 121 153 169 189 195 224 241 236 234 239 252 262 280 278 287 303 318 318 286 300 321 322 341 347 331 323 327 332 332 317
174 176 175 177 180 182 186 178 182 185 188 190 191 193 194 198 197 196 198 198 203 206 209 210 212 216 220 218 218 216 216 214 214 217 196 187 193 190 191 195 185 188 200 208 211 218 192 113 150 179 169 193 202 223 234 237 240 238 241 247 240 234 38 40 23 263 248 263 296 305 292 289 297 341 332 339 352 348 346 338 336 328 333 324 317
181 181 181 182 184 182 190 186 192 193 185 194 166 46 239 206 202 199 204 206 208 206 204 205 207 213 216 215 213 217 215 217 213 199 205 179 166 191 186 189 184 180 194 181 180 187 201 192 210 223 233 233 234 235 235 236 235 244 246 231 221 204 200 200 182 173 170 239 245 277 287 319 349 342 347 341 351 334 347 338 330 331 321 320 322
184 187 192 194 195 187 198 194 192 198 193 182 126 105 65 60 38 5 162 14 22 29 40 207 222 210 214 213 288 222 224 218 38 132 129 133 153 166 123 161 174 172 156 161 171 180 188 211 220 219 221 225 226 227 223 218 224 215 196 128 246 213 174 183 193 139 133 226 242 260 17 341 359 357 346 341 334 327 337 326 330 331 324 332 335
177 187 190 196 197 193 194 200 192 195 202 190 157 144 138 68 49 44 41 44 38 28 36 24 22 25 314 175 77 58 52 44 52 71 79 104 131 114 111 118 123 134 144 149 173 189 193 207 211 215 214 218 217 210 205 201 186 172 182 185 190 149 194 196 97 96 175 209 241 22 28 14 360 0 335 330 326 320 336 341 333 330 333 337 338
173 180 187 181 93 187 191 193 192 191 195 184 155 163 156 150 97 45 38 47 53 48 39 29 20 36 73 115 134 116 68 68 84 85 88 91 95 100 109 122 135 144 158 161 169 189 197 199 198 181 176 180 186 184 184 181 174 176 175 183 171 158 182 114 87 257 181 188 60 51 28 6 358 337 315 317 317 315 341 335 346 347 343 342 344
179 169 160 172 162 193 196 182 193 194 191 173 171 170 178 175 160 131 53 52 65 59 47 39 33 28 63 69 60 97 118 117 109 106 106 107 105 105 109 122 136 143 139 170 177 158 107 103 103 141 167 169 167 173 186 167 157 160 170 170 162 149 112 93 165 197 150 45 317 58 2 314 303 289 285 309 317 335 331 339 350 353 347 345 347
56 359 202 189 182 167 201 187 184 185 180 178 173 177 184 192 180 144 143 143 96 72 60 45 32 49 54 72 98 102 110 115 114 116 118 119 121 120 112 101 87 73 88 162 160 165 171 163 152 151 151 146 149 157 152 140 141 134 139 149 114 107 115 146 181 146 194 171 220 116 233 262 264 292 325 314 337 326 332 347 356 0 355 353 345
68 49 42 34 178 197 205 192 185 177 169 181 182 186 193 193 171 171 183 176 169 149 124 60 34 22 65 82 94 105 112 117 121 124 123 124 119 120 113 116 121 101 74 88 126 138 127 74 124 131 137 136 135 146 141 134 137 138 138 143 138 136 158 166 112 65 354 192 222 211 270 266 269 288 293 327 349 338 352 358 7 11 350 353 340
84 81 79 109 221 199 173 188 186 181 174 180 180 167 140 140 169 165 122 111 110 108 108 85 75 64 74 73 85 97 100 101 102 106 115 121 134 131 122 124 121 116 120 131 144 145 146 131 115 95 94 104 119 121 125 124 117 129 128 141 154 163 155 140 136 132 173 271 210 224 251 247 285 303 299 303 308 335 354 359 351 12 350 359 332
22 59 118 108 120 142 97 142 164 169 166 160 145 129 137 125 110 117 115 112 113 117 120 126 120 98 80 78 91 94 103 108 112 119 125 132 223 162 113 132 132 133 135 135 139 142 141 143 141 132 131 130 132 128 125 116 114 110 117 161 114 204 114 69 63 147 214 225 215 270 296 309 313 282 308 325 345 348 355 355 330 337 333 324 299
42 23 12 27 86 78 104 94 65 88 130 116 111 132 125 131 132 120 127 124 127 128 132 139 135 120 117 113 122 115 113 112 107 96 89 83 89 100 114 123 130 130 124 126 128 131 123 121 122 126 130 126 117 113 115 120 139 156 159 162 178 111 82 138 180 227 229 257 254 257 260 266 259 283 280 287 328 348 344 343 338 340 327 261 325
61 35 26 17 17 83 107 119 125 138 133 138 133 124 124 126 120 125 127 133 138 136 135 135 125 118 123 129 126 128 125 124 121 116 112 103 96 101 104 112 110 107 101 93 80 87 93 77 64 60 72 82 77 66 87 111 114 142 182 197 195 169 190 214 180 222 231 242 214 262 281 292 282 289 291 286 296 320 321 311 320 328 330 336 355
58 56 26 14 49 37 80 94 104 96 83 81 92 114 125 132 135 135 137 136 136 133 127 120 120 127 133 137 139 136 121 117 115 117 115 111 108 105 104 98 93 91 91 90 89 87 86 81 79 78 68 65 63 66 64 82 96 105 123 201 207 218 236 258 223 243 277 294 271 263 261 268 282 288 276 262 303 304 293 298 306 295 305 317 336
69 61 55 37 37 70 64 64 68 83 91 90 102 113 120 128 132 136 134 128 123 119 111 101 87 67 51 66 82 106 119 111 108 105 103 100 100 98 98 100 100 97 92 85 84 82 81 78 74 74 69 65 64 65 66 65 74 88 94 102 126 188 207 17 317 291 291 271 277 280 284 274 274 276 274 287 284 263 259 272 271 284 284 292 315
47 58 44 38 36 54 67 72 81 86 89 88 90 98 113 121 125 122 117 113 108 106 103 92 86 81 74 79 90 100 103 102 101 98 92 84 86 87 86 86 87 89 90 86 85 88 87 85 82 78 75 70 67 66 65 65 57 59 62 57 61 67 207 181 238 262 268 276 281 288 295 303 306 297 272 258 274 278 286 281 300 288 291 299 299
52 48 45 37 38 51 61 67 68 71 78 82 85 87 93 100 108 110 108 106 103 101 99 101 100 87 80 79 90 92 101 100 95 89 85 84 81 80 83 90 87 88 89 89 88 89 91 89 86 83 79 74 67 66 65 58 47 47 46 44 34 22 348 303 288 284 291 286 288 292 286 278 278 268 279 282 281 281 279 277 275 279 285 282 286
58 61 54 46 51 56 61 71 71 70 70 75 82 86 92 92 91 101 104 103 103 100 98 99 104 102 104 96 97 96 99 97 92 88 85 83 81 82 82 79 76 78 84 86 92 93 92 92 90 90 85 79 75 71 68 63 67 63 50 32 40 355 332 353 343 345 340 329 316 299 288 289 287 283 275 274 271 269 268 273 277 280 279 284 298
35 35 44 64 58 59 66 71 80 86 90 89 92 90 88 88 90 92 97 101 102 102 101 103 106 107 107 92 79 85 85 86 86 86 85 88 90 87 85 83 83 84 85 74 67 69 78 81 82 80 80 75 71 70 66 56 35 22 26 11 7 10 352 346 335 327 313 310 311 306 300 295 294 288 283 279 286 284 278 276 276 272 271 271 271
356 62 51 47 69 78 77 84 91 92 91 97 103 100 95 90 89 88 93 96 97 100 100 98 99 99 87 83 86 86 87 91 91 88 85 83 82 82 80 80 81 84 86 84 78 71 71 76 84 89 86 86 79 81 81 78 70 62 42 36 14 354 342 329 327 298 294 299 298 298 305 307 303 306 312 306 289 283 283 291 286 282 283 282 282
15 11 21 63 73 84 87 96 98 101 103 98 100 102 101 99 95 88 89 97 101 101 100 99 98 98 102 102 95 90 92 94 95 91 87 83 83 81 81 81 81 79 80 83 86 85 82 78 76 74 71 69 67 56 51 51 50 44 42 32 21 354 354 341 316 292 272 279 295 299 307 305 299 290 286 286 289 292 292 283 284 286 283 277 280
57 74 51 58 94 104 110 102 100 101 96 97 99 100 101 99 98 99 99 96 98 101 101 100 98 99 103 105 104 97 89 91 90 88 86 83 78 79 79 80 80 80 76 76 73 71 69 71 72 72 69 62 57 55 49 43 42 33 29 28 22 359 336 325 304 294 323 340 319 297 294 295 302 303 307 306 302 301 299 302 308 312 311 305 289
56 72 92 93 107 117 119 118 115 99 99 98 96 101 106 105 101 97 98 97 92 97 103 107 107 105 101 102 107 105 95 97 95 90 85 83 80 78 77 77 80 82 82 79 79 77 74 69 68 68 67 66 64 60 57 46 39 37 27 25 1 344 334 331 317 337 322 298 279 290 298 300 305 307 307 303 305 303 300 300 304 304 299 294 295
50 65 73 77 76 83 87 98 94 89 86 89 92 92 97 104 106 105 102 100 102 103 99 101 105 108 104 96 95 97 95 92 91 91 90 88 84 84 82 77 75 76 77 77 77 76 75 75 76 76 74 72 70 66 60 53 42 33 25 6 347 342 347 334 314 325 318 318 314 309 310 307 308 308 311 309 310 307 306 308 307 299 295 294 291
42 50 55 58 68 90 92 85 84 84 86 87 86 91 94 92 93 102 108 109 109 108 103 102 102 100 99 92 88 84 83 83 84 86 85 82 82 83 85 83 82 80 82 83 83 81 79 81 78 77 74 71 66 67 60 52 42 27 10 3 0 358 355 354 351 340 326 311 289 296 326 322 320 322 322 324 324 321 326 314 305 307 308 303 302